This demonstration page uses our WeatherBlox Daily Observations layout. Learn more.

Left ArrowRight Arrow

44.31136, -96.79839

Hourly Observations for August 20, 2017

Temp ( °F °C ) Dew Point ( °F °C ) Humidity (%) Winds ( mph kmh ) Pressure ( in mb ) Visibility ( mi km ) Precip ( " mm )
12:56 am 00:56 Clear 68 20 64 17.8 87 87 SSE 8 13 29.85 1011 N/A 0.00 0.00
1:56 am 01:56 Clear 67 19.4 64 17.8 91 91 S 5 7 29.86 1011 N/A 0.00 0.00
2:56 am 02:56 Clear 64 17.8 63 17.2 96 96 N 3 6 29.86 1011 N/A 0.00 0.00
3:56 am 03:56 Clear 65 18.3 62 16.7 90 90 SE 6 9 29.87 1012 N/A 0.00 0.00
4:56 am 04:56 Clear 62 16.7 61 16.1 96 96 Calm 29.89 1012 N/A 0.00 0.00
5:56 am 05:56 Clear 62 16.7 60 15.6 93 93 NNW 6 9 29.92 1013 N/A 0.00 0.00
6:56 am 06:56 Sunny 62 16.7 61 16.1 96 96 N 6 9 29.94 1014 N/A 0.00 0.00
7:56 am 07:56 Sunny 65 18.3 63 17.2 93 93 N 8 13 29.94 1014 N/A 0.00 0.00
8:56 am 08:56 Sunny 68 20 64 17.8 87 87 N 7 11 29.97 1015 N/A 0.00 0.00
9:56 am 09:56 Sunny 70 21.1 61 16.1 73 73 NE 13 20 29.98 1015 N/A 0.00 0.00
10:56 am 10:56 Sunny 72 22.2 60 15.6 66 66 ENE 8 13 29.99 1016 N/A 0.00 0.00
11:56 am 11:56 Sunny 73 22.8 60 15.6 64 64 N 10 17 30.01 1016 N/A 0.00 0.00
12:56 pm 12:56 Sunny 72 22.2 61 16.1 68 68 N 10 17 30.04 1017 N/A 0.00 0.00
1:56 pm 13:56 Sunny 75 23.9 62 16.7 64 64 NNE 9 15 30.02 1017 N/A 0.00 0.00
2:56 pm 14:56 Partly Cloudy 75 23.9 60 15.6 60 60 NE 8 13 30.01 1016 N/A 0.00 0.00
3:56 pm 15:56 Partly Cloudy 75 23.9 59 15 58 58 NE 8 13 30.02 1017 N/A 0.00 0.00
4:56 pm 16:56 Mostly Sunny 75 23.9 60 15.6 60 60 NNE 9 15 30.04 1017 N/A 0.00 0.00
5:56 pm 17:56 Partly Cloudy 72 22.2 56 13.3 57 57 NNE 10 17 30.05 1018 N/A 0.00 0.00
6:56 pm 18:56 Sunny 70 21.1 56 13.3 61 61 NE 7 11 30.06 1018 N/A 0.00 0.00
7:56 pm 19:56 Sunny 69 20.6 56 13.3 63 63 E 8 13 30.04 1017 N/A 0.00 0.00
8:56 pm 20:56 Cloudy 68 20 58 14.4 70 70 NE 8 13 30.04 1017 N/A 0.00 0.00
9:56 pm 21:56 Mostly Clear 65 18.3 58 14.4 78 78 E 6 9 30.06 1018 N/A 0.00 0.00
11:56 pm 23:56 Partly Cloudy 62 16.7 59 15 90 90 ENE 5 7 30.06 1018 N/A 0.00 0.00

Powered by AerisWeather